CAPE
864 354 164 3 0 0 0 0 0 0 0 0 0 0 0 0 0 0 0 0 0 0 13 22 34 27 11 0 0 0 0 1 0 0 0 0 0 0 0 0 0 0 0
838 179 29 0 0 0 0 0 0 0 0 0 0 0 0 0 0 0 0 0 0 11 46 35 66 50 23 7 0 0 0 0 1 1 0 0 0 0 0 0 0 0 0
826 46 6 0 1 1 0 0 0 0 0 0 0 0 0 0 0 0 0 0 0 3 31 44 53 27 0 0 0 0 0 5 3 3 0 0 0 0 0 0 0 0 0
462 41 18 6 11 23 0 0 0 0 0 0 0 0 0 0 0 0 0 0 0 11 41 48 24 19 16 7 0 0 22 23 35 7 1 1 3 0 0 0 0 0 0
413 143 111 68 46 3 9 0 0 0 0 0 0 0 0 0 0 0 0 0 22 68 80 51 20 18 38 39 32 40 0 16 49 22 1 7 1 0 0 0 1 0 0
559 374 305 127 39 0 22 141 0 0 0 0 0 0 0 0 0 0 18 25 89 88 78 23 0 0 7 10 31 68 100 122 150 79 24 1 24 23 1 0 2 2 23
708 678 350 8 10 0 0 2 3 7 0 0 0 0 2 21 0 4 4 82 34 7 4 0 0 0 16 3 0 8 54 87 154 368 16 18 43 1 6 10 9 5 28
814 747 141 20 0 0 0 0 0 0 0 0 0 11 13 26 10 4 6 16 11 0 0 0 0 0 0 0 0 13 3 0 0 0 0 0 3 8 17 35 7 29 15
828 513 237 87 85 99 2 0 0 0 0 12 47 77 64 93 68 28 1 7 8 0 0 0 0 0 0 0 0 0 0 0 0 0 0 0 0 0 1 11 4 25 24
608 495 356 104 0 0 18 11 0 0 4 27 43 15 17 25 22 0 0 8 5 0 0 0 0 0 0 0 0 0 0 0 0 0 0 0 3 2 1 10 46 25 21
365 383 535 326 163 29 0 0 0 17 28 55 33 0 18 66 63 0 0 0 0 0 0 0 0 0 0 0 0 0 0 0 0 2 2 0 2 2 2 3 5 8 7
270 206 96 80 122 0 0 0 0 0 0 0 13 0 0 0 0 0 0 0 0 0 0 0 0 0 0 0 0 0 0 0 1 2 0 0 6 5 4 3 4 6 4
1 0 6 0 0 0 0 0 0 0 0 29 59 81 114 1 0 0 0 0 0 0 0 0 0 0 0 0 0 0 0 0 0 0 0 0 2 3 9 5 2 3 0
0 0 0 0 0 0 0 0 0 0 0 10 54 63 2 0 0 0 0 0 0 0 0 0 0 0 0 0 0 0 0 0 0 0 0 0 1 2 1 2 8 3 2
0 0 0 0 0 0 7 0 0 0 3 26 22 0 0 0 0 0 0 0 0 0 0 0 0 0 0 0 0 0 0 0 0 0 0 0 0 0 0 1 4 2 2
1 1 0 0 0 0 2 2 0 0 0 0 0 0 0 0 0 0 0 0 0 0 0 0 0 0 0 0 0 0 0 0 0 0 0 0 0 0 0 0 0 2 2
3 0 0 0 0 0 2 1 0 0 0 0 0 0 0 0 0 0 0 0 0 0 0 0 0 0 0 0 0 0 0 0 0 0 0 0 0 0 0 0 0 0 2
0 0 0 0 0 1 0 1 0 0 0 0 0 0 0 0 0 0 0 0 0 0 0 0 0 0 0 0 0 0 0 0 0 0 0 0 0 0 0 0 0 0 2
0 0 0 0 1 0 1 1 0 0 0 0 0 0 0 0 0 0 0 0 0 0 0 0 0 0 0 0 0 0 0 0 0 0 0 0 0 0 0 0 0 0 0
0 0 0 0 0 0 1 0 0 0 0 0 0 0 0 0 0 0 0 0 0 0 0 0 0 0 0 0 0 0 0 0 0 0 0 0 0 0 0 0 0 0 0
0 0 0 0 0 0 0 0 0 0 0 0 0 0 0 0 0 0 0 0 0 0 0 0 0 0 0 0 0 0 0 0 0 0 0 0 0 0 0 0 0 0 0
0 0 0 0 0 0 0 1 1 0 0 0 0 0 0 0 0 0 0 0 0 0 0 0 0 0 0 0 0 0 0 0 0 0 0 0 0 0 0 0 0 0 0
0 0 0 0 0 0 0 0 0 0 0 0 0 0 0 0 0 0 0 0 0 0 0 0 0 0 0 0 0 0 0 0 0 0 0 0 0 0 0 0 0 0 0
0 0 0 0 0 0 0 0 0 0 0 0 0 0 0 0 0 0 0 0 0 0 0 0 0 0 0 0 0 0 0 0 0 0 0 0 0 0 0 0 0 0 0
0 0 0 0 0 0 0 0 0 0 0 0 0 0 0 0 0 0 0 0 0 0 0 0 0 0 0 0 0 0 0 0 0 0 0 0 0 0 0 0 0 0 0
0 0 0 0 0 0 0 0 0 0 0 0 0 0 0 0 0 0 0 0 0 0 0 0 0 0 0 0 0 0 0 0 0 0 0 0 0 0 0 0 0 0 0
CIN
-432 -542 -600 -799 -0 -0 -0 -0 -0 -0 -0 -0 -0 -0 -0 -0 -0 -0 -0 -0 -0 -0 -76 -111 -99 -112 -73 -0 -0 -0 -0 -0 -0 -0 -0 -0 -0 -0 -0 -0 -0 -0 -0
-462 -620 -713 -38 -0 -0 -0 -0 -0 -0 -0 -0 -0 -0 -0 -0 -0 -0 -0 -0 -0 -67 -98 -108 -100 -106 -113 -87 -0 -0 -0 -0 -0 -0 -0 -0 -0 -0 -0 -0 -0 -0 -0
-459 -754 -706 -80 -689 -101 -0 -0 -0 -0 -0 -0 -0 -0 -0 -0 -0 -0 -0 -0 -0 -32 -136 -126 -124 -133 -0 -0 -0 -0 -0 -46 -0 -0 -0 -0 -0 -0 -0 -0 -0 -0 -0
-564 -765 -777 -840 -801 -870 -108 -19 -0 -0 -0 -0 -0 -0 -0 -0 -0 -0 -0 -0 -0 -171 -150 -145 -152 -156 -134 -41 -0 -0 -109 -96 -74 -40 -0 -0 -0 -0 -0 -0 -0 -0 -0
-612 -714 -711 -777 -686 -376 -375 -0 -0 -0 -0 -0 -0 -0 -0 -0 -0 -0 -0 -0 -170 -190 -238 -168 -188 -180 -157 -144 -94 -87 -0 -95 -62 -64 -0 -117 -14 -0 -0 -0 -0 -0 -0
-583 -638 -598 -572 -575 -2 -90 -103 -0 -0 -0 -0 -0 -0 -0 -0 -0 -0 -181 -150 -179 -143 -129 -175 -0 -0 -213 -191 -138 -97 -96 -86 -64 -91 -103 -0 -34 -16 -0 -0 -0 -0 -0
-505 -475 -492 -661 -541 -0 -100 -244 -183 -444 -0 -0 -0 -0 -256 -274 -0 -199 -162 -200 -181 -212 -162 -0 -0 -0 -181 -100 -0 -206 -132 -127 -64 -1 -9 -24 -9 -0 -2 -0 -12 -22 -0
-469 -380 -554 -625 -0 -0 -0 -0 -0 -0 -0 -0 -160 -330 -332 -306 -343 -156 -202 -196 -199 -0 -0 -0 -0 -0 -0 -0 -0 -145 -74 -0 -0 -0 -0 -0 -0 -0 -0 -2 -18 -2 -9
-400 -454 -521 -530 -478 -393 -124 -31 -0 -0 -90 -390 -335 -315 -307 -287 -258 -265 -271 -214 -174 -13 -0 -0 -0 -0 -0 -0 -0 -0 -0 -0 -0 -0 -0 -0 -0 -0 -0 -0 -0 -1 -4
-444 -450 -439 -475 -0 -15 -394 -265 -0 -129 -265 -205 -203 -234 -200 -117 -251 -22 -0 -269 -132 -0 -0 -0 -0 -0 -0 -0 -0 -0 -0 -0 -0 -0 -0 -0 -0 -0 -0 -2 -14 -4 -5
-512 -425 -305 -321 -287 -163 -0 -0 -0 -257 -212 -217 -143 -0 -347 -133 -52 -0 -0 -0 -0 -0 -0 -0 -0 -0 -0 -0 -0 -0 -0 -0 -0 -0 -0 -0 -0 -0 -0 -0 -0 -0 -0
-467 -380 -402 -418 -291 -0 -0 -0 -0 -0 -0 -0 -281 -0 -0 -8 -0 -0 -0 -0 -0 -0 -0 -0 -0 -0 -0 -0 -0 -0 -0 -0 -0 -0 -0 -0 -0 -0 -0 -0 -0 -0 -1
-65 -164 -186 -0 -0 -0 -0 -0 -0 -0 -0 -313 -230 -204 -132 -0 -0 -0 -0 -0 -0 -0 -0 -0 -0 -0 -0 -0 -0 -0 -0 -0 -0 -0 -0 -0 -0 -0 -0 -0 -0 -1 -0
-0 -0 -0 -0 -0 -0 -0 -0 -0 -0 -0 -232 -117 -142 -36 -0 -0 -0 -0 -0 -0 -0 -0 -0 -0 -0 -0 -0 -0 -0 -0 -0 -0 -0 -0 -0 -0 -0 -0 -0 -0 -0 -0
-0 -0 -0 -0 -0 -0 -150 -10 -28 -0 -102 -94 -180 -0 -0 -0 -0 -0 -0 -0 -0 -0 -0 -0 -0 -0 -0 -0 -0 -0 -0 -0 -0 -0 -0 -0 -0 -0 -0 -0 -0 -0 -0
-290 -248 -0 -0 -0 -0 -0 -0 -0 -0 -0 -0 -0 -0 -0 -0 -0 -0 -0 -0 -0 -0 -0 -0 -0 -0 -0 -0 -0 -0 -0 -0 -0 -0 -0 -0 -0 -0 -0 -0 -0 -0 -0
-508 -0 -0 -0 -0 -0 -0 -0 -0 -0 -0 -0 -0 -0 -0 -0 -0 -0 -0 -0 -0 -0 -0 -0 -0 -0 -0 -0 -0 -0 -0 -0 -0 -0 -0 -0 -0 -0 -0 -0 -0 -0 -0
-0 -0 -0 -0 -0 -0 -0 -0 -0 -0 -0 -0 -0 -0 -0 -0 -0 -0 -0 -0 -0 -0 -0 -0 -0 -0 -0 -0 -0 -0 -0 -0 -0 -0 -0 -0 -0 -0 -0 -0 -0 -0 -0
-0 -0 -0 -0 -0 -0 -0 -0 -0 -0 -0 -0 -0 -0 -0 -0 -0 -0 -0 -0 -0 -0 -0 -0 -0 -0 -0 -0 -0 -0 -0 -0 -0 -0 -0 -0 -0 -0 -0 -0 -0 -0 -0
-0 -0 -0 -0 -0 -0 -0 -0 -0 -0 -0 -0 -0 -0 -0 -0 -0 -0 -0 -0 -0 -0 -0 -0 -0 -0 -0 -0 -0 -0 -0 -0 -0 -0 -0 -0 -0 -0 -0 -0 -0 -0 -0
-0 -0 -0 -0 -0 -0 -0 -0 -0 -0 -0 -0 -0 -0 -0 -0 -0 -0 -0 -0 -0 -0 -0 -0 -0 -0 -0 -0 -0 -0 -0 -0 -0 -0 -0 -0 -0 -0 -0 -0 -0 -0 -0
-0 -0 -0 -0 -0 -0 -0 -0 -0 -0 -0 -0 -0 -0 -0 -0 -0 -0 -0 -0 -0 -0 -0 -0 -0 -0 -0 -0 -0 -0 -0 -0 -0 -0 -0 -0 -0 -0 -0 -0 -0 -0 -0
-0 -0 -0 -0 -0 -0 -0 -0 -0 -0 -0 -0 -0 -0 -0 -0 -0 -0 -0 -0 -0 -0 -0 -0 -0 -0 -0 -0 -0 -0 -0 -0 -0 -0 -0 -0 -0 -0 -0 -0 -0 -0 -0
-0 -0 -0 -0 -0 -0 -0 -0 -0 -0 -0 -0 -0 -0 -0 -0 -0 -0 -0 -0 -0 -0 -0 -0 -0 -0 -0 -0 -0 -0 -0 -0 -0 -0 -0 -0 -0 -0 -0 -0 -0 -0 -0
-0 -0 -0 -0 -0 -0 -0 -0 -0 -0 -0 -0 -0 -0 -0 -0 -0 -0 -0 -0 -0 -0 -0 -0 -0 -0 -0 -0 -0 -0 -0 -0 -0 -0 -0 -0 -0 -0 -0 -0 -0 -0 -0
-0 -0 -0 -0 -0 -0 -0 -0 -0 -0 -0 -0 -0 -0 -0 -0 -0 -0 -0 -0 -0 -0 -0 -0 -0 -0 -0 -0 -0 -0 -0 -0 -0 -0 -0 -0 -0 -0 -0 -0 -0 -0 -0
Wind_Speed
14 13 12 11 11 9 10 10 9 7 7 7 7 7 6 6 5 4 4 5 4 4 4 5 7 5 5 5 5 4 5 5 6 5 5 5 6 9 9 9 10 10 10
13 12 13 12 12 12 11 10 8 9 6 7 7 6 6 6 5 5 5 4 4 5 6 5 7 3 6 6 5 8 7 6 5 11 8 7 7 10 11 11 9 10 11
13 13 12 13 13 14 11 10 9 8 8 7 7 7 7 7 6 6 5 6 5 6 6 6 7 4 6 5 6 6 7 6 6 6 10 7 7 8 9 9 10 11 10
13 14 14 16 17 14 9 8 9 8 7 8 7 7 7 6 7 6 6 5 6 7 7 6 6 6 6 6 5 8 7 7 7 7 9 9 9 9 7 10 10 9 10
15 15 18 18 11 5 7 6 4 7 9 8 7 7 6 6 5 6 6 6 7 8 6 6 5 7 11 9 4 6 7 7 7 7 9 9 9 9 10 9 10 11 11
15 17 10 8 11 12 4 8 7 9 9 10 8 7 7 5 8 10 8 6 7 6 6 4 4 8 7 10 10 13 12 8 9 6 8 9 13 10 9 9 10 12 14
11 9 8 12 12 13 12 13 14 10 9 11 8 8 9 8 6 8 9 5 6 6 6 4 5 4 6 6 8 9 10 12 12 9 10 11 12 12 11 12 12 12 15
11 9 12 14 14 14 13 11 12 6 9 6 8 9 8 6 7 9 9 5 6 6 5 5 5 7 6 5 7 7 6 6 6 5 7 11 12 13 12 12 13 14 15
10 11 13 15 16 13 12 13 12 3 2 3 2 4 6 8 11 11 4 5 6 6 4 4 4 7 7 5 3 6 7 7 5 9 10 13 18 20 19 10 11 12 15
11 12 13 13 10 10 7 6 4 4 4 3 4 3 2 13 9 8 7 3 5 3 3 4 5 5 5 1 2 3 5 6 9 12 11 12 11 13 18 11 10 13 15
12 10 9 6 7 5 6 5 6 7 5 6 6 3 8 5 17 11 9 4 3 2 3 3 2 4 3 2 3 2 3 6 11 8 9 9 10 10 10 10 12 12 16
11 8 6 7 5 6 10 7 6 7 7 6 4 2 3 7 6 7 10 5 5 3 4 1 2 4 4 2 2 4 6 7 5 6 7 8 7 8 10 11 16 17 16
12 10 9 7 8 6 6 6 4 5 4 4 4 4 4 3 3 5 8 8 5 2 1 2 7 7 4 1 3 5 6 4 4 6 7 7 7 9 12 12 15 17 18
12 10 9 9 9 7 5 4 3 2 3 2 5 6 3 3 3 3 3 2 1 0 1 3 3 2 5 3 2 4 3 3 4 5 6 7 8 7 9 9 12 13 14
11 9 8 7 11 9 7 4 4 4 0 3 5 3 4 5 4 5 5 3 3 1 1 1 2 2 1 2 3 3 3 4 5 5 6 7 8 8 9 9 10 12 12
11 8 6 5 5 4 4 2 12 7 1 2 7 2 2 4 9 6 3 5 5 5 2 2 2 1 1 2 3 3 3 6 5 6 6 6 8 8 9 9 9 9 11
5 7 6 6 6 7 6 6 5 5 13 8 6 10 7 9 9 8 7 6 5 7 2 2 1 1 1 1 2 2 3 5 6 5 6 7 8 7 10 9 9 9 11
4 6 3 3 4 5 5 5 5 5 4 3 7 6 7 9 7 8 8 4 2 4 2 1 1 2 2 1 2 3 4 4 5 6 6 7 7 8 9 9 8 9 10
3 3 2 3 5 6 6 6 5 5 6 5 4 2 3 7 7 7 4 1 1 1 2 2 3 2 1 2 2 3 4 4 5 5 6 7 7 7 8 8 8 11 11
2 4 4 3 4 5 5 6 6 6 6 6 6 6 5 4 4 3 2 1 2 3 3 3 2 2 2 2 2 3 2 3 4 5 6 6 7 6 8 9 8 7 8
3 3 5 4 4 4 5 6 5 5 6 6 6 5 7 5 4 3 3 3 3 3 3 2 3 3 1 1 2 1 1 2 3 4 5 6 7 7 8 7 8 7 8
1 3 2 1 2 3 3 4 5 5 5 6 4 4 8 3 4 4 4 4 4 4 3 4 3 2 1 0 0 0 1 3 3 4 5 6 7 7 7 8 8 8 8
4 4 2 1 2 4 3 3 3 3 4 5 6 5 5 4 4 4 4 4 4 4 3 3 3 3 2 1 1 0 2 3 3 3 5 6 6 7 7 7 8 8 8
4 4 4 3 3 3 3 3 3 4 4 4 4 4 4 3 4 4 5 5 4 5 4 4 3 3 3 3 2 2 2 2 3 3 4 5 6 7 6 6 7 9 7
4 4 4 3 3 2 3 2 3 4 4 4 5 6 6 6 5 6 6 5 5 6 6 5 3 4 5 5 4 4 3 4 5 5 3 4 5 6 6 5 6 6 9
4 4 2 2 2 3 4 4 4 4 4 5 5 6 7 8 7 7 6 6 5 6 6 5 5 7 7 5 4 3 3 4 4 4 3 3 3 4 4 6 8 6 8
Wind_Direction
193 189 180 182 183 175 181 190 184 176 184 186 187 199 212 228 230 223 240 255 243 266 264 252 256 229 237 232 223 224 221 193 251 283 247 275 285 288 292 291 290 289 290
197 188 188 178 180 183 190 186 176 186 178 186 192 201 211 220 228 224 239 245 249 253 254 252 261 269 246 242 225 234 235 216 220 269 286 277 274 285 289 288 285 287 285
189 183 182 180 185 189 188 181 179 182 183 190 195 201 209 214 216 223 223 239 239 241 242 234 245 241 252 239 228 236 241 247 229 248 277 276 280 286 286 281 281 283 279
184 184 188 186 192 194 176 200 172 184 182 198 197 206 213 215 216 224 222 234 244 247 248 245 242 235 245 251 244 242 250 252 248 250 267 276 274 277 275 283 290 290 291
187 191 200 199 188 136 152 232 188 186 202 205 200 213 222 217 232 227 232 238 243 245 231 235 234 236 241 236 234 255 237 244 248 253 270 277 278 277 278 292 288 294 291
196 205 197 142 140 123 82 227 241 208 200 203 205 207 219 230 229 237 238 241 239 233 249 253 244 264 272 271 255 245 241 248 255 260 268 271 280 282 283 280 292 301 297
200 195 143 136 147 143 174 214 234 211 206 209 191 204 226 229 212 252 245 240 244 233 226 242 274 259 272 277 282 284 280 270 256 267 272 272 283 280 284 283 285 282 284
186 162 151 155 159 174 178 188 234 222 213 184 203 212 219 228 192 243 250 249 244 241 235 232 243 275 270 271 287 290 283 287 289 282 260 278 280 282 277 281 283 281 283
175 166 164 158 180 189 196 195 228 199 160 190 273 220 214 243 204 216 214 252 245 241 229 239 233 261 283 321 296 291 300 301 290 287 284 281 281 280 273 284 279 289 287
176 176 169 162 187 200 188 202 140 133 162 177 236 171 340 303 282 273 247 212 238 231 221 256 251 283 307 302 246 269 290 303 316 315 317 306 295 295 291 278 281 287 292
158 167 178 142 157 144 126 133 130 126 140 177 183 192 99 327 281 270 218 187 211 202 244 261 266 328 253 192 165 238 268 310 306 308 311 310 313 313 302 294 285 285 287
136 142 144 123 122 126 132 138 154 168 197 164 176 134 218 226 255 244 187 169 158 204 242 243 287 313 281 232 241 287 304 312 301 313 316 317 312 306 298 295 294 288 282
122 132 133 145 142 141 142 175 179 186 224 157 219 209 216 170 207 111 105 123 132 186 333 339 297 293 267 198 326 348 331 317 332 328 320 312 301 295 297 300 298 296 303
128 139 136 145 140 147 171 170 183 200 153 167 220 224 173 170 195 124 115 106 174 160 317 312 322 114 103 96 26 343 323 334 339 316 314 305 295 308 311 303 308 312 317
133 144 154 157 151 168 165 183 203 97 268 190 227 162 173 209 206 162 172 192 212 178 297 91 111 119 92 16 344 324 331 345 344 332 322 315 308 313 315 313 313 316 323
163 152 135 155 158 139 125 87 47 37 302 169 272 138 84 126 133 153 219 244 207 180 161 168 146 128 44 342 332 328 334 349 344 329 323 317 316 317 316 317 319 327 323
130 126 159 155 159 161 163 169 156 45 64 60 123 116 114 129 96 80 87 88 151 157 147 145 158 106 53 354 323 330 326 335 320 330 326 326 325 319 324 325 327 329 324
143 184 186 135 151 147 172 160 142 145 153 138 41 65 101 106 114 137 136 121 114 51 84 151 153 131 116 296 317 330 323 334 337 336 332 332 330 329 330 330 331 327 323
262 253 215 127 131 147 145 140 141 158 169 143 128 110 143 131 123 109 167 218 177 128 130 143 150 154 186 261 304 314 317 335 340 335 336 335 332 334 333 331 322 324 327
82 119 127 126 121 123 136 146 149 160 162 182 185 178 162 147 189 177 145 150 125 136 158 172 180 197 222 266 304 319 327 348 353 346 341 335 335 337 338 337 335 329 335
137 117 124 124 147 155 152 157 163 168 182 194 190 173 180 191 181 179 180 170 163 170 175 181 154 153 172 264 307 354 7 354 354 341 338 341 342 343 340 344 339 354 350
125 91 81 106 137 142 184 173 180 171 172 177 179 173 177 198 170 175 183 187 176 181 169 161 148 148 164 222 260 51 16 353 351 346 342 342 343 346 349 355 354 352 2
107 112 118 124 147 142 158 159 175 173 176 186 184 177 181 182 193 173 193 183 173 172 163 156 151 159 171 174 197 341 355 359 345 330 335 340 343 347 352 357 355 358 4
107 120 124 125 132 146 155 177 201 186 195 194 164 178 187 185 194 202 197 184 179 173 167 166 173 173 176 197 214 238 266 300 309 313 322 332 341 345 356 5 7 1 4
127 118 115 123 131 150 165 196 212 207 201 195 201 205 200 204 204 203 194 188 188 178 181 176 170 178 194 204 222 242 271 297 296 311 312 337 352 1 1 6 17 26 22
101 102 108 134 158 196 200 197 208 215 208 206 206 209 207 208 207 202 186 188 185 183 181 183 184 186 187 197 220 261 307 316 335 329 315 359 19 19 16 18 23 42 42